Погода в Каховке

Украина / Херсонская область     46˚48′24″N   33˚28′51″E
темп.,
°C
ветер,
м/с
пор.,
м/с
влажн.,
%
обл.,
%
осадки,
мм/ч
давл.,
гПа
погр.,
м
6 декабря, вс
вс623:00+1˚в8136352 0.0 1029637
02:00в8146226 0.0 1029624
05:00−1˚в815600 0.0 1029558
08:00−2˚в815540 0.0 1029574
11:00+1˚в913480 0.0 1029706
14:00+2˚в912430 0.0 1028800
17:00в814430 0.0 1028682
20:00−2˚в915570 0.0 1029645
7 декабря, пн
пн723:00−3˚в914660 0.0 1028643
02:00−3˚всв915660 0.0 1028646
05:00−4˚всв9157021 0.0 1027720
08:00−3˚всв10157945 0.0 1027718
11:00−1˚в11168397 0.1 1026729
14:00в10147899 0.1 1025771
17:00в10177879 0.0 1025718
20:00в9168049 0.0 1025696
8 декабря, вт
вт823:00в10158057 0.0 1024761
02:00в9147979 0.0 1024879
05:00в91382100 0.0 1023864
08:00+1˚в91381100 0.1 1023760
11:00+2˚в91378100 0.0 1023753
14:00+3˚в91375100 0.0 1022773
17:00+1˚в9137888 0.0 1022698
20:00+2˚в9147994 0.0 1022694
9 декабря, ср
ср923:00+2˚в91482100 0.0 1022625
02:00+2˚в91487100 0.6 1022605
05:00+3˚в81485100 0.3 1022602
08:00+3˚в81386100 0.3 1022556
11:00+4˚в81282100 0.0 1022512
14:00+5˚в81282100 0.0 1021535
17:00+5˚в91384100 0.0 1022488
20:00+5˚в9148499 0.1 1022558
10 декабря, чт
чт1023:00+5˚вюв9158699 0.0 1023485
02:00+5˚вюв9148990 0.0 1024436
05:00+5˚вюв81389100 0.0 1023441
08:00+6˚вюв71188100 0.0 1024530
11:00+7˚вюв81182100 0.0 1024568
14:00+8˚вюв81182100 0.0 1023620
17:00+5˚в91384100 0.0 1024439
20:00+4˚в9148199 0.0 1023469